Regional Weather Roundup
Issued by NWS

Home | Current Version | Previous Version | Graphics & Text | Print | Product List | Glossary On
Versions: 1 2 3 4 5 6 7 8 9 10 11 12 13 14 15 16 17 18 19 20 21 22 23 24 25 26 27 28 29 30 31 32 33 34 35 36 37 38 39 40 41 42 43 44 45 46 47 48 49 50
657
ASUS43 KIND 231909
RWRIN

WEATHER ROUNDUP FOR INDIANA
NATIONAL WEATHER SERVICE INDIANAPOLIS IN
300 PM EDT MON MAY 23 2016

NOTE: "FAIR" INDICATES FEW OR NO CLOUDS BELOW 12,000 FEET WITH NO
SIGNIFICANT WEATHER AND/OR OBSTRUCTIONS TO VISIBILITY.

* - STATION DOES NOT REPORT WEATHER SUCH AS PRECIPITATION OR FOG.

+ - STATION NOT QUALITY CONTROLLED BY THE NATIONAL WEATHER SERVICE.
    USE DATA WITH CAUTION...ESPECIALLY DEWPOINT AND RELATIVE
    HUMIDITY OBSERVATIONS.

INZ001>003-010>013-019-020-232000-
NORTHWEST INDIANA

CITY           SKY/WX    TMP DP  RH WIND       PRES   REMARKS
GARY /AIRPORT/ MOSUNNY   81  46  30 SE5       30.01F
KNOX *+        SUNNY     79  19  11 SE8G18    30.01F
LA PORTE +     SUNNY     80  35  19 SE7       30.02F
MICHIGAN CITY+ SUNNY     79  41  25 E7        30.01F
MONTICELLO +   SUNNY     78  21  12 SE7G16    30.00F
RENSSELAER +   SUNNY     79  30  17 SE8       30.01S
VALPARAISO     SUNNY     79  39  23 S9        30.01F

$$

LMZ046-743>745-232000-
SOUTHERN LAKE MICHIGAN

STATION/POSITION TIME  TEMP    WIND        PRES    WAVE
                       AIR SEA DIR/SP/G            HT
                 (UTC) (F)     (DEG/KT/KT) (MB)    (FT)
BURNS HARBOR     1800   77     180/  7/ 12 1016.9F
MICHIGAN CITY    1800   73     100/  4/  7   N/A
5NW MICH CITY    1900   63 60   40/  6/  8   N/A     0

$$

INZ004-005-014>016-021>024-232000-
NORTH CENTRAL INDIANA

CITY           SKY/WX    TMP DP  RH WIND       PRES   REMARKS
ELKHART        SUNNY     75  45  33 SE3       30.04F
GOSHEN         SUNNY     76  35  22 VRB6      30.03F
LOGANSPORT +   SUNNY     75  34  22 E8        30.03F
PERU/GRISSOM   SUNNY     76  37  24 VRB5      30.02F
ROCHESTER +    SUNNY     79  36  21 S7        30.04F
SOUTH BEND     SUNNY     76  38  25 S8        30.03F
WARSAW +       SUNNY     75  36  23 CALM      30.04F

$$

INZ006>009-017-018-025>027-232000-
NORTHEAST INDIANA

CITY           SKY/WX    TMP DP  RH WIND       PRES   REMARKS
ANGOLA *+      SUNNY     73  36  25 E3        30.05S
AUBURN +       SUNNY     73  28  19 S3        30.06S
FORT WAYNE     SUNNY     75  28  17 CALM      30.05F
HUNTINGTON +   SUNNY    N/A N/A N/A SW5       30.04F

$$

INZ028-029-035-036-043>045-051>053-232000-
WEST CENTRAL INDIANA

CITY           SKY/WX    TMP DP  RH WIND       PRES   REMARKS
CRAWFORDSVL +  SUNNY     75  44  32 SE6       30.01F
GREENCASTLE +  SUNNY     75  50  41 SE6       30.02S
LAFAYETTE      SUNNY     77  45  32 SE8       30.00F
TERRE HAUTE    SUNNY     78  44  29 E8        30.00F

$$

INZ030>032-037>040-046>048-054>057-064-065-232000-
CENTRAL INDIANA

CITY           SKY/WX    TMP DP  RH WIND       PRES   REMARKS
CP ATTERBURY + SUNNY     75  43  31 E10       30.02F
COLUMBUS       SUNNY     75  41  29 SE6       30.02F
FRANKFORT +      N/A     79 -11   3 E13       30.03F
GREENWOOD *+   SUNNY     75  43  31 E7        30.03F
INDIANAPOLIS   SUNNY     76  42  29 SE9       30.01F
-EAGLE CREEK   SUNNY     76  39  26 NE7       30.01F
KOKOMO *+      SUNNY     75  37  25 SE7       30.03F
MARION +       SUNNY     74  34  22 CALM      30.05F
SHELBYVILLE    SUNNY     78  34  20 E5        30.02F
ZIONSVILLE +   SUNNY     74  37  26 SE6       30.03F

$$

INZ033-034-041-042-049-050-058-059-232000-
EAST CENTRAL INDIANA

CITY           SKY/WX    TMP DP  RH WIND       PRES   REMARKS
MUNCIE         SUNNY     77  32  19 CALM      30.04F

$$

INZ060-061-067>069-081>083-085>088-232000-
SOUTHWEST INDIANA

CITY           SKY/WX    TMP DP  RH WIND       PRES   REMARKS
EVANSVILLE     SUNNY     78  48  34 VRB6      30.01S
HUNTINGBURG *+ SUNNY     79  46  31 CALM      30.00F
WASHINGTON +   SUNNY     79  47  32 E8        30.00S

$$

INZ062-063-066-070>080-084-089>092-232000-
SOUTH CENTRAL AND SOUTHEAST INDIANA

CITY           SKY/WX    TMP DP  RH WIND       PRES   REMARKS
BEDFORD +      SUNNY     75  55  50 E9        30.00F
BLOOMINGTON    SUNNY     77  39  25 SE8       30.01F
MADISON *+     SUNNY     77  37  24 E8        30.04F
NORTH VERNON + SUNNY     77  45  31 CALM      30.03F
SEYMOUR +      SUNNY     79  45  29 E7        30.01F

$$





USA.gov is the U.S. government's official web portal to all federal, state and local government web resources and services.